Regional Weather Roundup
Issued by NWS Cleveland, OH

Home | Current Version | Previous Version | Graphics & Text | Print | Product List | Glossary On
Versions: 1 2 3 4 5 6 7 8 9 10 11 12 13 14 15 16 17 18 19 20 21 22 23 24 25 26 27 28 29 30 31 32 33 34 35 36 37 38 39 40 41 42 43 44 45 46 47 48 49 50
000
ASUS41 KCLE 172310
RWRCLE
OHIO REGIONAL WEATHER ROUNDUP
NATIONAL WEATHER SERVICE WILMINGTON, OH
600 PM EST FRI NOV 17 2017

NOTE: "FAIR" INDICATES FEW OR NO CLOUDS BELOW 12,000 FEET WITH NO
SIGNIFICANT WEATHER AND/OR OBSTRUCTIONS TO VISIBILITY.

OHZ001>008-015>018-024>027-034-035-043-044-180000-
   NORTHWEST OHIO

CITY           SKY/WX    TMP DP  RH WIND       PRES   REMARKS
DEFIANCE       MOCLDY    45  32  60 S9        29.93F
FINDLAY        FAIR      44  32  62 S12       29.96F
TOLEDO EXPRESS FAIR      45  35  68 S5        29.95F
TOLEDO EXEC    FAIR      44  34  67 S9        29.97F
LIMA           FAIR      43  34  70 S13       29.95F
$$

OHZ009>014-019>023-028>033-038-089-180000-
   NORTHEAST OHIO

CITY           SKY/WX    TMP DP  RH WIND       PRES   REMARKS
CLE-HOPKINS    CLOUDY    43  30  60 S12       30.03F
CLE-LAKEFRONT  FAIR      44  29  55 SE10      30.01F
CUY CO. ARPT   CLOUDY    43  30  61 SE9       30.02F
LORAIN-ELYRIA  FAIR      42  27  55 S12       30.00F
ASHTABULA      FAIR      39  28  64 S10       30.03F
AKRON-CANTON   MOCLDY    41  28  60 S9        30.02F
WOOSTER        FAIR      38  30  73 S7        30.02F
MANSFIELD      FAIR      41  30  65 SE15      29.99F
YOUNGSTOWN     MOCLDY    39  28  64 SE10      30.02F
$$

OHZ042-051>053-060>062-070>072-077>081-180000-
  SOUTHWEST OHIO

CITY           SKY/WX    TMP DP  RH WIND       PRES   REMARKS
CINC-COVINGTON FAIR      44  35  70 S9        29.97F
CINC-LUNKEN    FAIR      46  34  62 CALM      30.00F
HAMILTON       FAIR      48  33  56 S5        29.99F
DAYTON         MOCLDY    45  33  63 S9        29.97F
WRIGHT-PAT AFB FAIR      46  30  55 SE9       29.97F
DAYTON GENERAL FAIR      44  32  62 SE7       29.97F
WILMINGTON     FAIR      42  33  70 SE6       29.98F
$$

OHZ036-037-039>041-045>050-054>059-063>069-073>076-082>088-180000-
  CENTRAL AND SOUTHEAST OHIO

CITY           SKY/WX    TMP DP  RH WIND       PRES   REMARKS
COLUMBUS       MOCLDY    46  32  58 SE8       30.01F
OSU AIRPORT    FAIR      45  33  63 SE9       29.99F
BOLTON FIELD   CLEAR     43  32  65 SE5       30.01F
RICKENBACK AFB FAIR      43  32  64 SE3       30.01F
NEWARK         FAIR      44  29  55 SE5       30.01F
MARION         FAIR      42  32  67 S10       29.99F
LANCASTER      FAIR      44  31  60 SE9       30.02F
ZANESVILLE     FAIR      40  29  64 SE6       30.04F
NEW PHILLY     FAIR      41  30  65 SE3       30.05F
$$




USA.gov is the U.S. government's official web portal to all federal, state and local government web resources and services.